• Processing (Info)

  • MPEC 2016-E28 : 2016 EG1

    The following Minor Planet Electronic Circular may be linked-to from your own Web pages, but must not otherwise be redistributed electronically.

    A form allowing access to any MPEC is at the bottom of this page.


    Read MPEC 2016-E27 Read MPEC 2016-E29


    M.P.E.C. 2016-E28                                Issued 2016 Mar. 3, 16:38 UT
    
         The Minor Planet Electronic Circulars contain information on unusual
             minor planets and routine data on comets.  They are published
        on behalf of Division F of the International Astronomical Union by the
              Minor Planet Center, Smithsonian Astrophysical Observatory,
                              Cambridge, MA 02138, U.S.A.
    
                 Prepared using the Tamkin Foundation Computer Network
    
                                  MPC@CFA.HARVARD.EDU
                URL https://www.minorplanetcenter.net/    ISSN 1523-6714
    
                                       2016 EG1
    
    Observations:
         K16E01G* C2016 03 02.42743 12 44 34.41 +34 17 54.2          21.4 VqEE028G96
         K16E01G  C2016 03 02.43353 12 44 36.12 +34 16 47.1          21.2 VqEE028G96
         K16E01G  C2016 03 02.43963 12 44 37.82 +34 15 39.8          22.7 VqEE028G96
         K16E01G  C2016 03 02.44573 12 44 39.46 +34 14 32.2          21.7 VqEE028G96
         K16E01G  C2016 03 02.45115 12 44 41.01 +34 13 31.6                qEE028G96
         K16E01G  C2016 03 02.45176 12 44 41.23 +34 13 24.6          21.8 VqEE028G96
         K16E01G  C2016 03 02.45435 12 44 41.97 +34 12 55.2          21.0 VqEE028G96
         K16E01G  C2016 03 02.45496 12 44 42.13 +34 12 48.7          22.3 VqEE028G96
         K16E01G KC2016 03 02.51034 12 44 59.72 +34 01 59.8                oEE028291
         K16E01G KC2016 03 02.51442 12 45 01.19 +34 01 09.4                oEE028291
         K16E01G KC2016 03 02.51851 12 45 02.50 +34 00 18.4                oEE028291
         K16E01G KC2016 03 03.11597112 52 02.958+31 40 11.78         21.4 RtEE028Y28
         K16E01G KC2016 03 03.11956312 52 04.866+31 39 06.57         20.7 RtEE028Y28
         K16E01G KC2016 03 03.12316412 52 06.755+31 38 01.04         21.3 RtEE028Y28
         K16E01G  C2016 03 03.47651 12 56 52.88 +29 12 17.1          20.5 RoEE028926
         K16E01G  C2016 03 03.48336 12 56 58.53 +29 08 53.0          20.2 RoEE028926
    
    Observer details:
    291 LPL/Spacewatch II.  Observer T. H. Bressi.  1.8-m f/2.7 reflector + CCD.
    926 Tenagra II Observatory.  Observers M. Schwartz, P. R. Holvorcem.  Measurer
        M. Schwartz.  0.81-m f/7 Ritchey-Chretien + CCD.
    G96 Mt. Lemmon Survey.  Observer J. A. Johnson.  Measurers E. J. Christensen,
        D. C. Fuls, A. R. Gibbs, A. D. Grauer, J. A. Johnson, R. A. Kowalski,
        S. M. Larson, G. J. Leonard, R. G. Matheny, R. L. Seaman, F. C. Shelly.
        1.5-m reflector + CCD.
    Y28 OASI, Nova Itacuruba.  Observers F. Monteiro, J. S. Silva, D. Lazzaro,
        R. Souza, T. Rodrigues.  Measurers M. Micheli, F. Monteiro.  1.0-m f/7
        reflector + CCD.
    
    Orbital elements:
    2016 EG1                                                 Earth MOID = 0.0013 AU
    Epoch 2016 Jan. 13.0 TT = JDT 2457400.5                 MPC
    M 278.03406              (2000.0)            P               Q
    n   0.75568046     Peri.  255.70091     -0.48672154     +0.87093888
    a   1.1937423      Node   344.61592     -0.67060673     -0.42210301
    e   0.3190462      Incl.   14.75920     -0.55981135     -0.25158402
    P   1.30           H   29.0           G   0.15           U   7
    Residuals in seconds of arc
    160302 G96  0.7-  0.2+    160302 G96  0.4-  0.0     160303 Y28  0.2-  0.1-
    160302 G96  0.3-  0.3-    160302 G96  0.6-  0.4+    160303 Y28  0.5-  0.1+
    160302 G96  0.2-  0.3-    160302 291  1.3+  1.3-    160303 926  0.4-  0.2-
    160302 G96  1.1-  0.0     160302 291 (2.5+  1.7-)   160303 926  0.6-  0.5-
    160302 G96  0.9-  0.2+    160302 291 (1.4+  2.2-)
    160302 G96  0.4-  0.1+    160303 Y28  0.1-  0.1-
    
    Ephemeris:
    2016 EG1                 a,e,i = 1.19, 0.32, 15                  q = 0.8129
    Date    TT    R. A. (2000) Decl.     Delta      r     Elong.  Phase     V
    2016 02 02    12 07 28.5 +39 18 18   0.2362  1.1610   133.6    37.9    27.7
    ...
    2016 02 17    12 21 09.4 +40 08 34   0.1226  1.0824   138.2    37.5    26.1
    ...
    2016 02 25    12 27 44.0 +39 36 27   0.06467 1.0400   140.0    37.7    24.7
    ...
    2016 03 02    12 41 45.0 +35 22 32   0.02196 1.0086   142.3    37.0    22.2
    2016 03 03    12 50 12.2 +32 09 28   0.01494 1.0034   143.3    36.2    21.4
    2016 03 04    13 10 23.8 +23 12 21   0.0080810.9982   144.4    35.4    20.0
    ...
    2016 03 10    00 09 36.1 -45 24 20   0.03527 0.9675    42.6   136.0    28.0
    ...
    2016 03 18    00 17 34.0 -42 20 47   0.09243 0.9285    41.8   134.4    29.8
    ...
    2016 04 02    00 18 38.9 -38 36 37   0.2033  0.8649    44.0   126.6    30.6
    
    A. U. Tomatic                (C) Copyright 2016 MPC           M.P.E.C. 2016-E28
    

    Read MPEC 2016-E27 Read MPEC 2016-E29


    MPEC number:

    Enter an MPEC number in one of the following forms:

    • 1997-B01 (the full form)
    • J97B01 (the packed version of the full form)
    • B01 (the abbreviated form)